カタログに戻る

FENGYUN 1C DEB

運用中SSO
NORAD 37912·DEBRIS·🇨🇳 China

打ち上げ May 10, 1999 から Taiyuan Satellite Launch Center

Loading…

次のパス (今後24時間)

TLE

最新Source: Space-Track

元期: Sep 14, 2026, 10:03 UTC

1 37912U 99025ENM 26257.41880009  .00002560  00000-0  13337-2 0  9991
2 37912  99.2383 239.4635 0090923   9.5378 350.7493 14.13418948811807

AllMySatでFENGYUN 1C DEBをリアルタイム追跡

Download on the App Store